Regional Weather Roundup
Issued by NWS

Home | Current Version | Previous Version | Graphics & Text | Print | Product List | Glossary On
Versions: 1 2 3 4 5 6 7 8 9 10 11 12 13 14 15 16 17 18 19 20 21 22 23 24 25 26 27 28 29 30 31 32 33 34 35 36 37 38 39 40 41 42 43 44 45 46 47 48 49 50
000
ASUS43 KLOT 261458
RWRIL

ILLINOIS REGIONAL WEATHER ROUNDUP
NATIONAL WEATHER SERVICE CHICAGO/ROMEOVILLE IL
1000 AM CDT SAT JUL 26 2014

NOTE: "FAIR" INDICATES FEW OR NO CLOUDS BELOW 12,000 FEET WITH NO
SIGNIFICANT WEATHER AND/OR OBSTRUCTIONS TO VISIBILITY.

* THESE STATIONS ARE NOT UNDER NWS QUALITY CONTROL. THEY ALSO MAY NOT
  REPORT WEATHER SUCH AS PRECIPITATION OR FOG.

ILZ001-002-007-009-015-016-024-261600-
NORTHWEST ILLINOIS

CITY           SKY/WX    TMP DP  RH WIND       PRES   REMARKS
MOLINE         CLOUDY    73  66  78 NE9       29.81F
$$

ILZ003-004-008-010-011-017-018-261600-
NORTH CENTRAL ILLINOIS

CITY           SKY/WX    TMP DP  RH WIND       PRES   REMARKS
ROCKFORD       NOT AVBL
$$

ILZ005-006-012>014-019>023-261600-
NORTHEAST ILLINOIS

CITY           SKY/WX    TMP DP  RH WIND       PRES   REMARKS
CHICAGO-OHARE  CLOUDY    74  62  66 CALM      29.83F
CHICAGO-MIDWAY PTSUNNY   75  66  73 SW8       29.83F
AURORA         PTSUNNY   74  65  73 CALM      29.85S
WAUKEGAN       MOSUNNY   72  62  71 CALM      29.83F
DUPAGE AIRPORT PTSUNNY   75  65  70 W5        29.84S
WHEELING       MOSUNNY   76  64  66 SW3       29.85F
NORTHERLY ISL    N/A     73  63  70 S6          N/A
$$

LMZ740>746-261600-
SOUTHERN LAKE MICHIGAN

STATION/POSITION SKY/WX   TEMP    WIND        PRES    VSBY  WAVE
                          AIR SEA DIR/SP/G                  HT/PER
                          (F)     (DEG/KT/KT) (MB)    (MI)  (FT/S)
SOUTHERN BUOY              63 61  140/  6/  8 1011.1F         1
WAUKEGAN HARBOR            72     170/  2/  3   N/A
HARRISON CRIB              68     170/  8/  9   N/A
BURNHAM HARBOR             73     190/  4/  8   N/A
CALUMET HARBOR             71     220/  4/  9 1009.6F
MICHIGAN CITY              70     170/  9/ 13   N/A
MICHIGAN CITY 6N           69 68  210/  6/  8   N/A           1
ST. JOSEPH                 68 66  140/  2/  2   N/A           0
$$

ILZ025>027-034>036-040-047-049-050-058-095>099-261600-
WEST-CENTRAL ILLINOIS

CITY           SKY/WX    TMP DP  RH WIND       PRES   REMARKS
$$

ILZ028>032-037-038-041>044-048-051>054-059>061-261600-
CENTRAL ILLINOIS

CITY           SKY/WX    TMP DP  RH WIND       PRES   REMARKS
PEORIA         NOT AVBL
SPRINGFIELD    SUNNY     80  72  76 SW10      29.85S HX  84
TAYLORVILLE    NOT AVBL
$$

ILZ033-039-045-046-055>057-062-063-261600-
EAST-CENTRAL ILLINOIS

CITY           SKY/WX    TMP DP  RH WIND       PRES   REMARKS
CHAMPAIGN      SUNNY     79  71  76 SW12      29.87F HX  82
$$

ILZ079-100>102-261600-
SOUTHWEST ILLINOIS

CITY           SKY/WX    TMP DP  RH WIND       PRES   REMARKS
ALTON          SUNNY     81  75  83 SW9       29.89S HX  86
CAHOKIA*       SUNNY     83  72  69 VRB6      29.89F HX  88
$$

ILZ064>066-069>071-074>076-080>082-084>086-088>090-092>094-261600-
SOUTH-CENTRAL ILLINOIS

CITY           SKY/WX    TMP DP  RH WIND       PRES   REMARKS
CARBONDALE     SUNNY     80  70  71 SW10      29.94S HX  83
$$

ILZ067-068-072-073-078-083-087-091-261600-
SOUTHEAST ILLINOIS

CITY           SKY/WX    TMP DP  RH WIND       PRES   REMARKS
$$

ABBREVIATIONS USED IN REMARKS
   TC - TEMPERATURE IN CELSIUS
  WCI - WIND CHILL INDEX
   HX - HEAT INDEX
  VSB - VISIBILITY
$$



USA.gov is the U.S. government's official web portal to all federal, state and local government web resources and services.